TimeEDT,TemperatureF,Dew PointF,Humidity,Sea Level PressureIn,VisibilityMPH,Wind Direction,Wind SpeedMPH,Gust SpeedMPH,PrecipitationIn,Events,Conditions,WindDirDegrees,DateUTC
12:54 AM,62.1,51.1,67,30.20,10.0,Calm,Calm,-,N/A,,Clear,0,2013-06-20 04:54:00
1:54 AM,62.1,51.1,67,30.21,10.0,Calm,Calm,-,N/A,,Clear,0,2013-06-20 05:54:00
2:54 AM,59.0,52.0,78,30.21,10.0,Calm,Calm,-,N/A,,Clear,0,2013-06-20 06:54:00
3:54 AM,55.9,52.0,87,30.22,10.0,NE,4.6,-,N/A,,Clear,40,2013-06-20 07:54:00
4:54 AM,55.9,52.0,87,30.23,10.0,Calm,Calm,-,N/A,,Clear,0,2013-06-20 08:54:00
5:54 AM,55.9,53.1,90,30.25,10.0,Calm,Calm,-,N/A,,Clear,0,2013-06-20 09:54:00
6:54 AM,60.1,55.0,83,30.27,10.0,Calm,Calm,-,N/A,,Clear,0,2013-06-20 10:54:00
7:54 AM,66.0,57.9,75,30.27,10.0,Calm,Calm,-,N/A,,Partly Cloudy,0,2013-06-20 11:54:00
8:54 AM,69.1,57.0,65,30.28,10.0,SSW,3.5,-,N/A,,Clear,210,2013-06-20 12:54:00
9:54 AM,71.1,54.0,55,30.28,10.0,SSW,6.9,-,N/A,,Clear,210,2013-06-20 13:54:00
10:54 AM,73.0,55.0,53,30.30,10.0,SSW,6.9,-,N/A,,Clear,200,2013-06-20 14:54:00
11:54 AM,75.0,55.9,51,30.29,10.0,Variable,6.9,-,N/A,,Partly Cloudy,0,2013-06-20 15:54:00
12:54 PM,75.0,55.0,50,30.28,10.0,SSW,6.9,-,N/A,,Mostly Cloudy,210,2013-06-20 16:54:00
1:54 PM,77.0,55.0,47,30.27,10.0,WSW,9.2,-,N/A,,Scattered Clouds,250,2013-06-20 17:54:00
2:54 PM,78.1,55.9,46,30.26,10.0,Variable,4.6,-,N/A,,Scattered Clouds,0,2013-06-20 18:54:00
3:54 PM,77.0,52.0,42,30.25,10.0,SSW,9.2,-,N/A,,Partly Cloudy,210,2013-06-20 19:54:00
4:54 PM,78.1,53.1,42,30.25,10.0,WSW,8.1,-,N/A,,Partly Cloudy,240,2013-06-20 20:54:00
5:54 PM,77.0,52.0,42,30.25,10.0,SSW,6.9,-,N/A,,Clear,200,2013-06-20 21:54:00
6:54 PM,77.0,53.1,43,30.25,10.0,SSW,8.1,-,N/A,,Clear,210,2013-06-20 22:54:00
7:54 PM,75.0,52.0,44,30.26,10.0,Variable,4.6,-,N/A,,Clear,0,2013-06-20 23:54:00
8:54 PM,73.0,51.1,46,30.26,10.0,SSW,10.4,16.1,N/A,,Clear,210,2013-06-21 00:54:00
9:54 PM,70.0,51.1,51,30.27,10.0,SSW,8.1,17.3,N/A,,Clear,200,2013-06-21 01:54:00
10:54 PM,68.0,50.0,52,30.28,10.0,SW,8.1,-,N/A,,Clear,220,2013-06-21 02:54:00
11:54 PM,66.0,50.0,56,30.30,10.0,SSW,3.5,-,N/A,,Clear,210,2013-06-21 03:54:00